Aérodrome :
LOGIN :

S'inscrire | Disclaimer

   EN    FR    IT 

 










Légende :    VFR   VFR Marginal   IFR   IFR Intensif   IFR Très Intensif
Visi : 
Plafond : 
>= 8 km
>= 3000ft
5 à 8 km
1000 à 3000 ft
1500m à 5 km
500 à 1000 ft
800 à 1500m
200 à 500 ft
< 800m
< 200 ft
Symboles :   Orages  Brouillard  Fortes neiges  Fortes précipitations  Vent > 20 kt
SIGMETs :   Divers  Orages  Givrage  Turbulence  Onde Orograph.  Cendres Volcan.







- Altitude de l'aérodrome : 2001 ft
- Code IATA : MAD


LEMD - Madrid

DERNIER METAR :
  • 270500Z 00000KT CAVOK 12/07 Q1016 NOSIG

METARs EXPIRÉS :
  • 270430Z 03002KT CAVOK 12/07 Q1016 NOSIG
  • 270400Z 34004KT CAVOK 13/07 Q1016 NOSIG
  • 270330Z 36003KT CAVOK 13/07 Q1016 NOSIG
  • 270300Z 03004KT CAVOK 13/07 Q1016 NOSIG
  • 270230Z VRB01KT CAVOK 14/07 Q1016 NOSIG
  • 270200Z 32005KT CAVOK 14/07 Q1016 NOSIG

TAF TAF LEMD
Valide du 27 à 00h jusqu'au 28 à 06h UTC


262300Z 2700/2806 02006KT CAVOK TX29/2716Z TN10/2705Z
PROB30
TEMPO 2717/2720 02015G25KT
Pas de NOTAMs connus pour ce terrain.



MET'MAP, la Météo Aéronautique d'un coup d'oeil ! - Copyright ORBIFLY Décembre 2007 - Disclaimer

ORBIFLY MET'MAP TEAM :

Programmation & Développement : Alexandra Zaïnal
Conception & Développement : Baudouin d'Aumeries
Co-Programmation & Développement : Marc-Olivier Méhu
Soutien technique & logistique : Manuel Goepfert

Contact : metmap@orbifly.com




SOURCES & CREDITS :

   NOAA